STARLINK-32132, 60334

Orbit data source: Space-Track

STARLINK-32132, 60334 is a payload satellite owned by SpaceX/Seattle (US) in LEO that was launched on Fri, 02 Aug 2024 UTC via an FALCON 9 launch vehicle from the Air Force Eastern Test Range (AFETR). Payload-class satellites include a variety of spacecraft equipped with specific instruments for various scientific and technological missions. These include communications satellites like Starlink; space stations such as the ISS; scientific satellites like the Hubble; Earth observation satellites from companies like Planet Labs, Umbra, and HawkEye 360; GPS; miniature CubeSats for education and research; and military/defense satellites.

Loading next visibility...
Identifier
60334, 2024-136F
Orbit
LEO
Last TLE update
4 hours ago
Origin
Manufacturer
SpaceX/Seattle
Mission
Operational Commercial Communications
Bus & Motor
STARLINK V2M, Unknown motor
Mass
730 kg wet, ~700 kg dry
Launch date (UTC)
2024-08-02 (11 months ago)
Launch vehicle
FALCON 9
Launch site
Air Force Eastern Test Range (AFETR)
Object type
Payload
Rocket body
Debris
Shape & HBR
Box + 2 Pan, 29 m
Radar Cross Section
33.884 m², Large (>1 m²)

Expand to show TLE details & history

TLE from 4 hours ago
0 STARLINK-32132
1 60334U 24136F   25182.23728788  .00000859  00000-0  41122-4 0  9991
2 60334  53.1592 163.8133 0001004  85.2567 274.8548 15.30189897 52226
Epoch: 2025-07-01T05:41Z
TLE epoch observation values (Epoch: 2025-07-01T05:41:41.672Z)
Latitude
-0.00007°
Longitude
158.85399°
Altitude
476.087 km
Speed
7.629 km/s
True Right ascension
10h 55m 15s
True Declination
0° 00' 00"
Sunlit
Object was in daylight at epoch
Visualization orbit readout
Latitude
53.30013°
Longitude
-110.1838°
Altitude
481.131 km
Speed
7.632 km/s
Apparent Right ascension
12h 19m 32s
Apparent Declination
17° 35' 37"
Sunlit
Object is in daylight
Visualization observer readout
Local Sidereal Time
20:51:47
Azimuth
309.053° NW
Elevation
-14.879°
Doppler factor
1
Orbital elements
Apogee altitude
476.19 km
Perigee altitude
474.814 km
Semi-major axis
6,853.639 km
Eccentricity
0.0001
Inclination
53.1592°
RAAN
163.8133°
Arg. of periapsis
85.2567°
True anomaly
Unknown
Mean anomaly
274.8548°
Eccentric anomaly
Unknown
Mean motion
3.82526 °/min
Orbital period
94.11 mins
BSTAR
0.000041122
Loading maneuver chart data...
Loading SW <> Apogee altitude chart data...
Loading historical data...
Loading historical data...
Loading historical data...
Loading historical data...
Loading historical data...
Loading historical data...
Loading historical data...

STARLINK-32132 Visibility forecast

Observer location: undefined°, undefined°

Span
Click to sort rows by Start time (UTC) header in descending order
Start Az.
Max El. time (UTC)
Max El. Az.
Max El.
End time (UTC)
End Az.
6 mins2025-07-01 09:21:32.561Z289.653° WNW2025-07-01 09:24:32.561Z226.64° WSW28.072°2025-07-01 09:27:32.561Z165.301° S
4 mins2025-07-02 00:40:32.561Z175.836° S2025-07-02 00:42:32.561Z125.478° SE24.85°2025-07-02 00:44:32.561Z81.319° E
5 mins2025-07-02 02:18:32.561Z278.065° WNW2025-07-02 02:20:32.561Z342.526° N29.791°2025-07-02 02:23:32.561Z36.014° NE
4 mins2025-07-02 07:15:32.561Z348.023° N2025-07-02 07:17:32.561Z43.667° NE25.174°2025-07-02 07:19:32.561Z84.215° E
4 mins2025-07-02 08:53:32.561Z275.782° WNW2025-07-02 08:55:32.561Z206.329° SW30.455°2025-07-02 08:57:32.561Z164.46° S
|